Meteo orario Abbakumovo

Oggi, 19 Giugno, Sabato

Tempo Temperatura Precipitazioni Vento Pressione Umidità
00:00 +16°C° 0 mm 2 m/s 749 mm Hg 87%
01:00 +15°C° 0 mm 2 m/s 749 mm Hg 90%
02:00 +14°C° 0 mm 2 m/s 749 mm Hg 92%
03:00 +15°C° 0 mm 2 m/s 749 mm Hg 91%
04:00 +15°C° 0 mm 2 m/s 749 mm Hg 90%
05:00 +16°C° 0 mm 2 m/s 750 mm Hg 89%
06:00 +18°C° 0 mm 2 m/s 750 mm Hg 81%
07:00 +19°C° 0 mm 2 m/s 750 mm Hg 74%
08:00 +21°C° 0 mm 2 m/s 750 mm Hg 67%
09:00 +23°C° 0 mm 2 m/s 749 mm Hg 62%
10:00 +24°C° 0 mm 2 m/s 749 mm Hg 57%
11:00 +26°C° 0 mm 2 m/s 749 mm Hg 51%
12:00 +26°C° 0 mm 2 m/s 749 mm Hg 50%
13:00 +27°C° 0 mm 2 m/s 749 mm Hg 48%
14:00 +27°C° 0 mm 2 m/s 748 mm Hg 47%
15:00 +27°C° 0 mm 2 m/s 748 mm Hg 51%
16:00 +27°C° 0 mm 2 m/s 748 mm Hg 55%
17:00 +27°C° 0 mm 2 m/s 747 mm Hg 58%
18:00 +25°C° 0 mm 2 m/s 747 mm Hg 65%
19:00 +23°C° 0 mm 2 m/s 747 mm Hg 72%
20:00 +20°C° 0 mm 2 m/s 747 mm Hg 79%
21:00 +19°C° 0 mm 2 m/s 747 mm Hg 82%
22:00 +18°C° 0 mm 2 m/s 747 mm Hg 85%
23:00 +17°C° 0 mm 2 m/s 748 mm Hg 89%

Domani, 20 Giugno, Domenica

Tempo Temperatura Precipitazioni Vento Pressione Umidità
00:00 +17°C° 0 mm 2 m/s 748 mm Hg 90%
01:00 +17°C° 0 mm 2 m/s 748 mm Hg 91%
02:00 +16°C° 0 mm 2 m/s 748 mm Hg 92%
03:00 +18°C° 0 mm 1 m/s 748 mm Hg 92%
04:00 +18°C° 0 mm 1 m/s 748 mm Hg 92%
05:00 +19°C° 0 mm 1 m/s 748 mm Hg 91%
06:00 +21°C° 0 mm 1 m/s 748 mm Hg 85%
07:00 +23°C° 0 mm 2 m/s 748 mm Hg 79%
08:00 +25°C° 0 mm 2 m/s 748 mm Hg 73%
09:00 +26°C° 0 mm 2 m/s 747 mm Hg 69%
10:00 +27°C° 0 mm 2 m/s 747 mm Hg 64%
11:00 +28°C° 0 mm 2 m/s 747 mm Hg 60%
12:00 +28°C° 0 mm 2 m/s 747 mm Hg 57%
13:00 +29°C° 0 mm 1 m/s 747 mm Hg 55%
14:00 +30°C° 0 mm 1 m/s 746 mm Hg 53%
15:00 +29°C° 0 mm 1 m/s 746 mm Hg 55%
16:00 +29°C° 0 mm 2 m/s 746 mm Hg 58%
17:00 +29°C° 0 mm 2 m/s 746 mm Hg 61%
18:00 +27°C° 0 mm 2 m/s 746 mm Hg 67%
19:00 +25°C° 0 mm 2 m/s 746 mm Hg 73%
20:00 +22°C° 0 mm 3 m/s 746 mm Hg 80%
21:00 +21°C° 0 mm 3 m/s 746 mm Hg 81%
22:00 +20°C° 0 mm 2 m/s 746 mm Hg 81%
23:00 +19°C° 0 mm 2 m/s 746 mm Hg 82%

Dopodomani, 21 Giugno, Lunedi

Tempo Temperatura Precipitazioni Vento Pressione Umidità
00:00 +18°C° 0 mm 2 m/s 746 mm Hg 85%
01:00 +18°C° 0 mm 2 m/s 746 mm Hg 87%
02:00 +17°C° 0 mm 2 m/s 746 mm Hg 90%
03:00 +18°C° 0 mm 2 m/s 746 mm Hg 89%
04:00 +18°C° 0 mm 2 m/s 746 mm Hg 88%
05:00 +20°C° 0 mm 1 m/s 746 mm Hg 87%
06:00 +20°C° 0 mm 2 m/s 746 mm Hg 82%
07:00 +21°C° 0 mm 2 m/s 746 mm Hg 76%
08:00 +24°C° 0 mm 3 m/s 746 mm Hg 71%
09:00 +25°C° 0 mm 3 m/s 746 mm Hg 65%
10:00 +26°C° 0 mm 3 m/s 746 mm Hg 59%
11:00 +28°C° 0 mm 3 m/s 746 mm Hg 54%
12:00 +28°C° 0 mm 3 m/s 746 mm Hg 52%
13:00 +29°C° 0 mm 3 m/s 745 mm Hg 50%
14:00 +30°C° 0 mm 3 m/s 745 mm Hg 48%
15:00 +29°C° 0 mm 3 m/s 745 mm Hg 52%
16:00 +29°C° 0 mm 3 m/s 745 mm Hg 57%
17:00 +28°C° 0 mm 3 m/s 745 mm Hg 61%
18:00 +27°C° 0 mm 3 m/s 745 mm Hg 68%
19:00 +25°C° 0 mm 3 m/s 745 mm Hg 75%
20:00 +22°C° 0 mm 3 m/s 745 mm Hg 82%
21:00 +21°C° 0 mm 3 m/s 745 mm Hg 86%
22:00 +20°C° 0 mm 3 m/s 745 mm Hg 90%
23:00 +20°C° 0 mm 3 m/s 745 mm Hg 93%

22 Giugno, Martedi

Tempo Temperatura Precipitazioni Vento Pressione Umidità
00:00 +19°C° 0 mm 3 m/s 745 mm Hg 94%
01:00 +19°C° 0 mm 2 m/s 745 mm Hg 94%
02:00 +19°C° 0 mm 2 m/s 745 mm Hg 95%
03:00 +19°C° 0 mm 2 m/s 745 mm Hg 94%
04:00 +19°C° 0 mm 2 m/s 745 mm Hg 93%
05:00 +20°C° 0 mm 2 m/s 745 mm Hg 92%
06:00 +22°C° 0 mm 3 m/s 745 mm Hg 84%
07:00 +24°C° 0 mm 3 m/s 746 mm Hg 77%
08:00 +26°C° 0 mm 4 m/s 746 mm Hg 70%
09:00 +28°C° 0 mm 4 m/s 746 mm Hg 64%
10:00 +29°C° 0 mm 4 m/s 746 mm Hg 58%
11:00 +30°C° 0 mm 4 m/s 746 mm Hg 52%
12:00 +32°C° 0 mm 4 m/s 746 mm Hg 51%
13:00 +32°C° 0 mm 4 m/s 746 mm Hg 50%
14:00 +33°C° 0 mm 4 m/s 745 mm Hg 48%
15:00 +33°C° 0 mm 4 m/s 745 mm Hg 52%
16:00 +32°C° 0 mm 4 m/s 745 mm Hg 56%
17:00 +30°C° 0 mm 4 m/s 745 mm Hg 59%
18:00 +28°C° 0 mm 4 m/s 745 mm Hg 67%
19:00 +27°C° 0 mm 3 m/s 745 mm Hg 74%
20:00 +25°C° 0 mm 3 m/s 745 mm Hg 81%
21:00 +24°C° 0 mm 3 m/s 746 mm Hg 85%
22:00 +22°C° 0 mm 3 m/s 746 mm Hg 89%
23:00 +21°C° 0 mm 3 m/s 746 mm Hg 93%

23 Giugno, Mercoledi

Tempo Temperatura Precipitazioni Vento Pressione Umidità
00:00 +21°C° 0 mm 2 m/s 746 mm Hg 94%
01:00 +21°C° 0 mm 2 m/s 746 mm Hg 94%
02:00 +20°C° 0 mm 2 m/s 746 mm Hg 95%
03:00 +21°C° 0 mm 2 m/s 746 mm Hg 94%
04:00 +21°C° 0 mm 2 m/s 747 mm Hg 92%
05:00 +21°C° 0 mm 2 m/s 747 mm Hg 91%
06:00 +24°C° 0 mm 2 m/s 747 mm Hg 84%
07:00 +25°C° 0 mm 2 m/s 747 mm Hg 77%
08:00 +27°C° 0 mm 3 m/s 747 mm Hg 70%
09:00 +28°C° 0 mm 3 m/s 747 mm Hg 64%
10:00 +30°C° 0 mm 3 m/s 747 mm Hg 58%
11:00 +31°C° 0 mm 3 m/s 747 mm Hg 53%
12:00 +33°C° 0 mm 3 m/s 747 mm Hg 49%
13:00 +33°C° 0 mm 3 m/s 747 mm Hg 46%
14:00 +34°C° 0 mm 3 m/s 747 mm Hg 43%
15:00 +33°C° 0 mm 3 m/s 747 mm Hg 48%
16:00 +32°C° 0 mm 2 m/s 747 mm Hg 52%
17:00 +31°C° 0 mm 2 m/s 747 mm Hg 57%
18:00 +29°C° 0 mm 2 m/s 746 mm Hg 63%
19:00 +27°C° 0 mm 3 m/s 746 mm Hg 70%
20:00 +25°C° 0 mm 3 m/s 746 mm Hg 76%
21:00 +24°C° 0 mm 3 m/s 746 mm Hg 79%
22:00 +24°C° 0 mm 2 m/s 747 mm Hg 81%
23:00 +23°C° 0 mm 2 m/s 747 mm Hg 84%

24 Giugno, Giovedi

Tempo Temperatura Precipitazioni Vento Pressione Umidità
00:00 +23°C° 0 mm 2 m/s 747 mm Hg 87%
01:00 +21°C° 0 mm 2 m/s 747 mm Hg 91%
02:00 +21°C° 0 mm 2 m/s 747 mm Hg 94%
03:00 +23°C° 0 mm 2 m/s 747 mm Hg 93%
04:00 +23°C° 0 mm 2 m/s 747 mm Hg 93%
05:00 +23°C° 0 mm 1 m/s 747 mm Hg 92%
06:00 +25°C° 0 mm 2 m/s 747 mm Hg 85%
07:00 +27°C° 0 mm 2 m/s 747 mm Hg 79%
08:00 +28°C° 0 mm 2 m/s 747 mm Hg 72%
09:00 +29°C° 0 mm 2 m/s 747 mm Hg 66%
10:00 +30°C° 0 mm 2 m/s 747 mm Hg 61%
11:00 +32°C° 0 mm 2 m/s 747 mm Hg 55%
12:00 +32°C° 0 mm 2 m/s 747 mm Hg 52%
13:00 +34°C° 0 mm 2 m/s 746 mm Hg 49%
14:00 +33°C° 0 mm 1 m/s 746 mm Hg 46%
15:00 +33°C° 0 mm 1 m/s 746 mm Hg 51%
16:00 +33°C° 0 mm 1 m/s 746 mm Hg 56%
17:00 +32°C° 0 mm 1 m/s 746 mm Hg 61%
18:00 +30°C° 0 mm 2 m/s 745 mm Hg 66%
19:00 +28°C° 0 mm 2 m/s 745 mm Hg 72%
20:00 +27°C° 0 mm 2 m/s 744 mm Hg 78%
21:00 +26°C° 0.1 mm 2 m/s 745 mm Hg 80%
22:00 +25°C° 0.1 mm 2 m/s 745 mm Hg 83%
23:00 +24°C° 0.1 mm 2 m/s 745 mm Hg 85%
Mostrare altro

Abbiamo bisogno del tuo consenso

Meteoprog e i nostri fornitori di servizi possono memorizzare e accedere a dati personali come cookie, identificatori di dispositivi o altre tecnologie simili sul tuo dispositivo e possono elaborare tali dati per personalizzare i contenuti e gli annunci, nonché fornire funzionalità dei social media e analizzarne il traffico.

  • Archiviare e/o accedere alle informazioni sul tuo dispositivo

    Cookie, identificatori di dispositivi o altre informazioni possono essere memorizzati o resi accessibili sul tuo dispositivo per le finalità sopra indicate.

  • Annunci e contenuti personalizzati, misurazione di annunci e contenuti, approfondimenti sul pubblico e sviluppo di prodotti

    Gli annunci e i contenuti possono essere personalizzati in base a un profilo. È possibile aggiungere più dati per personalizzare meglio annunci e contenuti. È possibile misurare il rendimento degli annunci e dei contenuti. È possibile ricavare informazioni sul pubblico che ha visto gli annunci e i contenuti. Tali dati possono essere utilizzati per sviluppare o migliorare l'esperienza, i sistemi e il software dell'utente.

Cliccando su “Accetto”, acconsenti all'uso di cookie, identificatori di dispositivo, web beacon o altre tecnologie simili. Puoi modificare le impostazioni nel browser del tuo dispositivo.

Per determinati scopi, è possibile fare affidamento su interessi legali, piuttosto che sul consenso. Puoi approfondire questo argomento consultando la nostra Informativa sulla privacy e sui cookie.